STARLINK-32624, 61926

Orbit data source: Space-Track

STARLINK-32624, 61926 is a payload satellite owned by SpaceX/Seattle (US) in LEO that was launched on Mon, 11 Nov 2024 UTC via an FALCON 9 launch vehicle from the Air Force Eastern Test Range (AFETR). Payload-class satellites include a variety of spacecraft equipped with specific instruments for various scientific and technological missions. These include communications satellites like Starlink; space stations such as the ISS; scientific satellites like the Hubble; Earth observation satellites from companies like Planet Labs, Umbra, and HawkEye 360; GPS; miniature CubeSats for education and research; and military/defense satellites.

Loading next visibility...
Identifier
61926, 2024-207Q
Orbit
LEO
Country
Flag of USUS
Related business
Manufacturer
SpaceX/Seattle
Mission
Operational Commercial Communications
Bus & Motor
STARLINK V2M, Unknown motor
Mass
730 kg wet, ~700 kg dry
Launch date (UTC)
2024-11-11 (2 years ago)
Launch vehicle
FALCON 9
Launch site
Air Force Eastern Test Range (AFETR)
Object type
Payload
Rocket body
Debris
Shape & HBR
Box + 2 Pan, 17.7 m
Radar Cross Section
33.884 m², Large (>1 m²)

Expand to show TLE details & history
Last TLE update: 11 hours ago

TLE from 11 hours ago
0 STARLINK-32624
1 61926U 24207Q   26208.06678306  .00007339  00000-0  27591-3 0  9992
2 61926  43.0025 214.1293 0001540 274.2750  85.7926 15.27584413 96045
Epoch: 2026-07-27T01:36Z
TLE epoch observation values (Epoch: 2026-07-27T01:36:10.056Z)
Latitude
0.00001°
Longitude
-114.66828°
Altitude
482.734 km
Speed
7.626 km/s
True Right ascension
14h 16m 31s
True Declination
0° 00' 00"
Sunlit
Object was in daylight at epoch
Visualization orbit readout
Latitude
Unknown
Longitude
Unknown
Altitude
Unknown
Speed
Unknown
Apparent Right ascension
Unknown
Apparent Declination
Unknown
Sunlit
N/A
Visualization observer readout
Local Sidereal Time
02:07:23
Azimuth
Unknown
Elevation
Unknown
Doppler factor
Unknown
Orbital elements
Apogee altitude
486.038 km
Perigee altitude
483.924 km
Semi-major axis
6,863.118 km
Eccentricity
0.00015
Inclination
43.0025°
RAAN
214.1293°
Arg. of periapsis
274.275°
True anomaly
85.8102°
Mean anomaly
85.7926°
Eccentric anomaly
85.8014°
Mean motion
3.81734 °/min
Orbital period
94.31 mins
BSTAR
0.00027591
Loading maneuver chart data...
Computing Atmospheric mass density...
Loading historical data...
Loading historical data...
Loading historical data...
Loading historical data...
Loading historical data...
Loading historical data...
Loading historical data...

Documentation

Showing up to 5 results
|